Location: Canyam�s
(41.5996°N, 2.4450°E)
Time: 19:21:30
(UTC+00:00)

X-37B - Visible Passes

Search period start: 11 August 2020 00:00
Search period end: 21 August 2020 00:00
Orbit: 385 x 388 km, 45.0° (Epoch: 09 August)

Date Brightness Start Highest point End Pass type
(mag) Time Alt. Az. Time Alt. Az. Time Alt. Az.
11 Aug 0.9 19:30:27 10° W 19:33:36 66° NNW 19:36:46 10° ENE visible
11 Aug 1.7 21:07:27 10° WNW 21:10:24 42° N 21:10:24 42° N visible
12 Aug 1.6 20:08:45 10° WNW 20:11:48 43° N 20:14:17 14° ENE visible
12 Aug 3.3 21:45:33 10° WNW 21:46:32 18° WNW 21:46:32 18° WNW visible
13 Aug 1.3 20:46:58 10° WNW 20:50:02 47° N 20:50:23 45° NNE visible
14 Aug 1.6 19:48:18 10° WNW 19:51:21 42° N 19:54:13 11° ENE visible
14 Aug 2.8 21:25:00 10° WNW 21:26:28 25° WNW 21:26:28 25° WNW visible
15 Aug 0.9 20:26:25 10° WNW 20:29:33 61° NNE 20:30:17 45° ENE visible
16 Aug 1.3 19:27:49 10° WNW 19:30:55 47° N 19:33:59 10° E visible
16 Aug 2.2 21:04:29 10° WNW 21:06:22 31° W 21:06:22 31° W visible
17 Aug 0.5 20:05:52 10° WNW 20:09:02 89° NNE 20:10:13 35° ESE visible
18 Aug 0.9 19:07:17 10° WNW 19:10:25 61° NNE 19:13:34 10° E visible
18 Aug 2.1 20:44:05 10° W 20:46:21 29° SW 20:46:21 29° SW visible
19 Aug 0.9 19:45:20 10° WNW 19:48:27 55° SSW 19:50:17 22° SE visible
20 Aug 2.6 20:23:58 10° W 20:26:13 18° SW 20:26:31 18° SSW visible
